Weather History for Watertown, SD

Change the Weather History Date:

Thursday, March 14, 2013

  Actual Average Record
Temperature  
Mean Temperature 29 °F 28 °F  
Max Temperature 37 °F 38 °F 69 °F (1935)
Min Temperature 20 °F 19 °F -20 °F (1960)
Degree Days  
Heating Degree Days 36 37  
Month to date heating degree days 624 551  
Since 1 July heating degree days 6987 6962  
Cooling Degree Days 0 0  
Month to date cooling degree days 0 0  
Year to date cooling degree days 0 0  
Moisture  
Dew Point 26 °F    
Average Humidity 88    
Maximum Humidity 100    
Minimum Humidity 75    
Precipitation  
Precipitation 0.00 in 0.03 in 0.65 in (1973)
Month to date precipitation 1.07 0.43  
Year to date precipitation 2.29 1.51  
Snow  
Snow 0.00 in - - ()
Month to date snowfall 4.0  
Since 1 July snowfall 28.1  
Snow Depth 15.00 in    
Sea Level Pressure  
Sea Level Pressure 30.09 in    
Wind  
Wind Speed 6 mph (SW)    
Max Wind Speed 20 mph    
Max Gust Speed 24 mph    
Visibility 9 miles    
Events      
T = Trace of Precipitation, MM = Missing Value Source: NWS Daily Summary

Daily Weather History Graph

Daily Weather History Graph

Search for Another Location

Airport:

Trip Planner

Search our weather history database for the weather conditions in past years. The results will help you decide how hot, cold, wet, or windy it might be!

Date:

Astronomy

Mar. 14, 2013 Rise Set
Actual Time 7:42 AM CDT 7:33 PM CDT
Civil Twilight 7:13 AM CDT 8:02 PM CDT
Nautical Twilight 6:39 AM CDT 8:37 PM CDT
Astronomical Twilight 6:04 AM CDT 9:11 PM CDT
Moon 8:47 AM CDT (3/14) 11:02 PM CDT (3/14)
Length of Visible Light 12h 49m
Length of Day
11h 51m
Waxing Crescent, 9% of the Moon is Illuminated
Mar 14
Waxing Crescent
Mar 19
First Quarter
Mar 27
Full
Apr 2
Last Quarter
Apr 10
New

Hourly Weather History & Observations

Time (CDT) Temp. Windchill Dew Point Humidity Pressure Visibility Wind Dir Wind Speed Gust Speed Precip Events Conditions
12:53 AM 28.9 °F 18.6 °F 25.0 °F 85% 30.12 in 10.0 mi South 12.7 mph - N/A   Overcast
1:53 AM 28.9 °F 16.9 °F 24.1 °F 82% 30.05 in 10.0 mi South 17.3 mph - N/A   Partly Cloudy
2:53 AM 30.0 °F 19.5 °F 25.0 °F 82% 30.05 in 10.0 mi South 13.8 mph - N/A   Mostly Cloudy
3:53 AM 28.9 °F 20.4 °F 25.0 °F 85% 30.04 in 10.0 mi South 9.2 mph - N/A   Clear
4:53 AM 27.0 °F 15.6 °F 24.1 °F 89% 30.03 in 10.0 mi South 13.8 mph - N/A   Clear
5:53 AM 25.0 °F 20.7 °F 23.0 °F 92% 30.04 in 9.0 mi South 3.5 mph - N/A   Clear
6:53 AM 21.9 °F - 21.0 °F 96% 30.06 in 6.0 mi Calm Calm - N/A   Clear
7:53 AM 23.0 °F 17.0 °F 21.0 °F 92% 30.09 in 5.0 mi West 4.6 mph - N/A   Clear
8:53 AM 21.9 °F 15.7 °F 19.9 °F 92% 30.12 in 8.0 mi North 4.6 mph - N/A   Clear
9:53 AM 28.0 °F - 24.1 °F 85% 30.11 in 10.0 mi Calm Calm - N/A   Clear
10:53 AM 30.9 °F 23.5 °F 27.0 °F 85% 30.11 in 10.0 mi NW 8.1 mph - N/A   Clear
11:53 AM 33.1 °F 25.5 °F 28.0 °F 82% 30.14 in 10.0 mi NW 9.2 mph - N/A   Clear
12:53 PM 35.1 °F 30.1 °F 28.0 °F 76% 30.14 in 10.0 mi WNW 5.8 mph - N/A   Clear
1:53 PM 35.1 °F 32.2 °F 28.9 °F 78% 30.13 in 10.0 mi NNW 3.5 mph - N/A   Clear
2:53 PM 37.0 °F 32.4 °F 30.0 °F 76% 30.13 in 10.0 mi West 5.8 mph - N/A   Clear
3:53 PM 36.0 °F 32.1 °F 30.0 °F 79% 30.12 in 10.0 mi NW 4.6 mph - N/A   Clear
4:53 PM 36.0 °F 30.3 °F 30.0 °F 79% 30.13 in 10.0 mi WSW 6.9 mph - N/A   Clear
5:53 PM 33.1 °F 30.0 °F 30.9 °F 92% 30.11 in 10.0 mi South 3.5 mph - N/A   Clear
6:53 PM 34.0 °F 31.0 °F 30.0 °F 85% 30.12 in 10.0 mi SSW 3.5 mph - N/A   Clear
7:53 PM 33.1 °F 30.0 °F 28.9 °F 85% 30.10 in 10.0 mi South 3.5 mph - N/A   Clear
8:53 PM 30.0 °F 24.1 °F 28.0 °F 92% 30.09 in 10.0 mi South 5.8 mph - N/A   Clear
9:53 PM 30.0 °F 26.5 °F 28.0 °F 92% 30.06 in 9.0 mi South 3.5 mph - N/A   Clear
10:53 PM 28.0 °F 20.8 °F 27.0 °F 96% 30.05 in 8.0 mi NNE 6.9 mph - N/A   Clear
11:53 PM 28.9 °F - 28.0 °F 96% 30.06 in 8.0 mi Calm Calm - N/A   Overcast